Regional Weather Roundup
Issued by NWS

Home | Current Version | Previous Version | Graphics & Text | Print | Product List | Glossary On
Versions: 1 2 3 4 5 6 7 8 9 10 11 12 13 14 15 16 17 18 19 20 21 22 23 24 25 26 27 28 29 30 31 32 33 34 35 36 37 38 39 40 41 42 43 44 45 46 47 48 49 50
000
ASUS43 KFSD 241410
RWRSD

WEATHER ROUNDUP FOR SOUTH DAKOTA
NATIONAL WEATHER SERVICE SIOUX FALLS SD
900 AM CDT WED AUG 24 2016

NOTE: "FAIR" INDICATES FEW OR NO CLOUDS BELOW 12,000 FEET WITH NO
SIGNIFICANT WEATHER AND/OR OBSTRUCTIONS TO VISIBILITY.


SDZ001>005-009-010-012>017-241500-
NORTHWEST AND NORTH CENTRAL SOUTH DAKOTA

CITY           SKY/WX    TMP DP  RH WIND       PRES   REMARKS
BUFFALO          N/A     58  48  69 W15       30.08R
FAITH            N/A     59  48  67 NW15      30.13R
MOBRIDGE       MOSUNNY   63  48  58 W12       30.03S
$$

SDZ012>016-024>037-041>051-057-063-072>074-241500-
SOUTHWEST AND SOUTH CENTRAL SOUTH DAKOTA

CITY           SKY/WX    TMP DP  RH WIND       PRES   REMARKS
RAPID CTY ARPT CLOUDY    60  45  57 N14       30.19R
PIERRE         CLOUDY    64  50  60 NW9       30.08R
CUSTER         CLOUDY    52  33  48 CALM      30.25R
ELLSWORTH AFB  CLOUDY    61  46  57 NW16G25   30.18R
PHILIP         CLOUDY    64  48  56 NW10      30.15R
PINE RIDGE     CLOUDY    50  45  83 CALM      30.20R
WINNER         FAIR      60  45  57 NW10      30.09R
$$

SDZ004>011-016>023-039-040-241500-
NORTHEAST SOUTH DAKOTA

CITY           SKY/WX    TMP DP  RH WIND       PRES   REMARKS
ABERDEEN       SUNNY     64  50  60 NW15      29.99R
WATERTOWN      SUNNY     65  53  65 NW8       29.98R
BROOKINGS      SUNNY     63  56  78 NW10      29.98R
SISSETON         N/A     68  51  54 NW15      29.93R
$$

SDZ017-020-022-023-036>040-048>070-241500-
SOUTHEAST SOUTH DAKOTA

CITY           SKY/WX    TMP DP  RH WIND       PRES   REMARKS
SIOUX FALLS    CLOUDY    67  57  70 W3        29.98R
HURON          SUNNY     62  49  62 NW13      30.00R
CHAMBERLAIN    MOSUNNY   61  50  66 NW5       30.06R
MITCHELL       SUNNY     61  51  70 CALM      30.01R
YANKTON        CLOUDY    61  48  63 NW9       29.99S
$$

ABBREVIATIONS USED IN REMARKS
   TC - TEMPERATURE IN CELSIUS
  WCI - WIND CHILL INDEX
   HX - HEAT INDEX
  VSB - VISIBILITY




USA.gov is the U.S. government's official web portal to all federal, state and local government web resources and services.